Location: Julian California
(33.0790°N, 116.6010°W)
Time: 03:33:31
(UTC-07:00)

BREEZE-M R/B - Pass Details

Date: 14 June 2018
Orbit: 310 x 4582 km, 49.7° (Epoch: 16 August)

Event Time Altitude Azimuth Distance (km) Brightness Sun altitude
Rises 21:56:30 0° 317° (NW) 2,443 7.7 -20.5°
Reaches altitude 10° 21:58:58 10° 329° (NNW) 1,333 5.9 -20.9°
Enters shadow 22:00:48 26° 6° (N) 665 3.7 -21.1°
